Time,TemperatureF,DewpointF,PressureIn,WindDirection,WindDirectionDegrees,WindSpeedMPH,WindSpeedGustMPH,Humidity,HourlyPrecipIn,Conditions,Clouds,dailyrainin,SoftwareType,DateUTC
2013-03-16 00:02:00,28.0,25.0,29.87,ENE,63,4.0,14.0,89,0.00,,,0.03,,2013-03-16 05:02:00,
2013-03-16 00:12:00,28.0,25.0,29.87,ENE,63,4.0,14.0,89,0.00,,,0.03,,2013-03-16 05:12:00,
2013-03-16 00:21:00,27.0,24.0,29.87,NE,56,2.0,7.0,89,0.01,,,0.04,,2013-03-16 05:21:00,
2013-03-16 00:32:00,27.0,24.0,29.85,ENE,68,2.0,11.0,89,0.01,,,0.04,,2013-03-16 05:32:00,
2013-03-16 00:42:00,27.0,24.0,29.85,ENE,68,2.0,11.0,89,0.01,,,0.04,,2013-03-16 05:42:00,
2013-03-16 00:52:00,27.0,24.0,29.86,ENE,69,0.0,12.0,90,0.01,,,0.04,,2013-03-16 05:52:00,
2013-03-16 01:02:00,27.0,24.0,29.86,ENE,72,2.0,8.0,90,0.03,,,0.06,,2013-03-16 06:02:00,
2013-03-16 01:12:00,27.0,24.0,29.86,ENE,72,2.0,8.0,90,0.03,,,0.06,,2013-03-16 06:12:00,
2013-03-16 01:22:00,27.0,24.0,29.85,NNE,28,3.0,12.0,90,0.02,,,0.06,,2013-03-16 06:22:00,
2013-03-16 01:32:00,27.0,24.0,29.85,East,90,2.0,10.0,90,0.02,,,0.06,,2013-03-16 06:32:00,
2013-03-16 01:42:00,27.0,24.0,29.85,East,90,2.0,10.0,90,0.02,,,0.06,,2013-03-16 06:42:00,
2013-03-16 01:52:00,27.0,24.0,29.86,NNE,33,5.0,13.0,89,0.02,,,0.06,,2013-03-16 06:52:00,
2013-03-16 02:02:00,26.0,23.0,29.86,ENE,71,7.0,13.0,89,0.00,,,0.06,,2013-03-16 07:02:00,
2013-03-16 02:12:00,26.0,23.0,29.86,ENE,71,7.0,13.0,89,0.00,,,0.06,,2013-03-16 07:12:00,
2013-03-16 02:22:00,26.0,23.0,29.85,NE,35,4.0,12.0,89,0.00,,,0.06,,2013-03-16 07:22:00,
2013-03-16 02:32:00,26.0,23.0,29.85,ENE,65,3.0,10.0,89,0.00,,,0.06,,2013-03-16 07:32:00,
2013-03-16 02:42:00,26.0,23.0,29.85,ENE,65,3.0,10.0,89,0.00,,,0.06,,2013-03-16 07:42:00,
2013-03-16 02:52:00,26.0,23.0,29.86,East,84,5.0,9.0,89,0.00,,,0.06,,2013-03-16 07:52:00,
2013-03-16 03:02:00,26.0,23.0,29.87,NE,50,6.0,10.0,89,0.00,,,0.06,,2013-03-16 08:02:00,
2013-03-16 03:12:00,26.0,23.0,29.87,NE,50,6.0,10.0,89,0.00,,,0.06,,2013-03-16 08:12:00,
2013-03-16 03:23:00,25.0,22.0,29.87,NNE,30,7.0,14.0,88,0.00,,,0.06,,2013-03-16 08:23:00,
2013-03-16 03:32:00,25.0,22.0,29.86,ENE,65,3.0,13.0,88,0.00,,,0.06,,2013-03-16 08:32:00,
2013-03-16 03:42:00,25.0,22.0,29.86,ENE,65,3.0,13.0,88,0.00,,,0.06,,2013-03-16 08:42:00,
2013-03-16 03:52:00,25.0,22.0,29.85,East,93,1.0,12.0,88,0.00,,,0.06,,2013-03-16 08:52:00,
2013-03-16 04:01:00,24.0,21.0,29.87,NNE,13,11.0,11.0,88,0.00,,,0.06,,2013-03-16 09:01:00,
2013-03-16 04:12:00,24.0,21.0,29.87,NNE,13,11.0,11.0,88,0.00,,,0.06,,2013-03-16 09:12:00,
2013-03-16 04:22:00,22.0,19.0,29.87,North,360,7.0,10.0,89,0.00,,,0.06,,2013-03-16 09:22:00,
2013-03-16 04:32:00,22.0,19.0,29.88,NNE,30,6.0,13.0,89,0.00,,,0.06,,2013-03-16 09:32:00,
2013-03-16 04:42:00,22.0,19.0,29.88,NNE,30,6.0,13.0,89,0.00,,,0.06,,2013-03-16 09:42:00,
2013-03-16 04:53:00,21.0,19.0,29.88,NE,56,5.0,14.0,90,0.00,,,0.06,,2013-03-16 09:53:00,
2013-03-16 05:03:00,21.0,18.0,29.88,NNE,20,7.0,14.0,89,0.00,,,0.06,,2013-03-16 10:03:00,
2013-03-16 05:12:00,21.0,18.0,29.88,NNE,20,7.0,14.0,89,0.00,,,0.06,,2013-03-16 10:12:00,
2013-03-16 05:23:00,21.0,18.0,29.89,NNE,22,5.0,17.0,89,0.00,,,0.06,,2013-03-16 10:23:00,
2013-03-16 05:32:00,21.0,18.0,29.90,North,350,4.0,10.0,89,0.00,,,0.06,,2013-03-16 10:32:00,
2013-03-16 05:42:00,21.0,18.0,29.90,North,350,4.0,10.0,89,0.00,,,0.06,,2013-03-16 10:42:00,
2013-03-16 05:53:00,21.0,18.0,29.90,North,355,3.0,11.0,89,0.00,,,0.06,,2013-03-16 10:53:00,
2013-03-16 06:03:00,20.0,17.0,29.91,ENE,57,7.0,12.0,89,0.00,,,0.06,,2013-03-16 11:03:00,
2013-03-16 06:12:00,20.0,17.0,29.91,ENE,57,7.0,12.0,89,0.00,,,0.06,,2013-03-16 11:12:00,
2013-03-16 06:22:00,20.0,17.0,29.92,NNE,20,4.0,13.0,89,0.00,,,0.06,,2013-03-16 11:22:00,
2013-03-16 06:32:00,20.0,17.0,29.93,North,360,7.0,14.0,89,0.00,,,0.06,,2013-03-16 11:32:00,
2013-03-16 06:42:00,20.0,17.0,29.93,North,360,7.0,14.0,89,0.00,,,0.06,,2013-03-16 11:42:00,
2013-03-16 06:52:00,20.0,17.0,29.94,NE,47,6.0,11.0,89,0.00,,,0.06,,2013-03-16 11:52:00,
2013-03-16 07:02:00,19.0,16.0,29.94,NNE,19,4.0,14.0,88,0.00,,,0.06,,2013-03-16 12:02:00,
2013-03-16 07:12:00,19.0,16.0,29.94,NNE,19,4.0,14.0,88,0.00,,,0.06,,2013-03-16 12:12:00,
2013-03-16 07:22:00,19.0,16.0,29.94,North,10,8.0,13.0,88,0.00,,,0.06,,2013-03-16 12:22:00,
2013-03-16 07:32:00,19.0,16.0,29.95,North,355,6.0,10.0,88,0.00,,,0.06,,2013-03-16 12:32:00,
2013-03-16 07:42:00,19.0,16.0,29.95,North,355,6.0,10.0,88,0.00,,,0.06,,2013-03-16 12:42:00,
2013-03-16 07:52:00,19.0,16.0,29.95,NE,54,11.0,15.0,88,0.00,,,0.06,,2013-03-16 12:52:00,
2013-03-16 08:02:00,19.0,16.0,29.96,NE,46,8.0,11.0,87,0.00,,,0.06,,2013-03-16 13:02:00,
2013-03-16 08:12:00,19.0,16.0,29.96,NE,46,8.0,11.0,87,0.00,,,0.06,,2013-03-16 13:12:00,
2013-03-16 08:22:00,19.0,16.0,29.97,NE,37,5.0,14.0,86,0.00,,,0.06,,2013-03-16 13:22:00,
2013-03-16 08:32:00,19.0,16.0,29.98,NNE,29,5.0,9.0,86,0.00,,,0.06,,2013-03-16 13:32:00,
2013-03-16 08:42:00,19.0,16.0,29.98,NNE,29,5.0,9.0,86,0.00,,,0.06,,2013-03-16 13:42:00,
2013-03-16 08:52:00,19.0,15.0,29.99,NNW,348,7.0,13.0,85,0.00,,,0.06,,2013-03-16 13:52:00,
2013-03-16 09:02:00,19.0,15.0,29.99,NE,48,5.0,11.0,85,0.00,,,0.06,,2013-03-16 14:02:00,
2013-03-16 09:12:00,19.0,15.0,29.99,NE,48,5.0,11.0,85,0.00,,,0.06,,2013-03-16 14:12:00,
2013-03-16 09:22:00,20.0,16.0,30.00,North,351,7.0,11.0,85,0.00,,,0.06,,2013-03-16 14:22:00,
2013-03-16 09:32:00,19.0,15.0,30.01,North,360,5.0,10.0,84,0.00,,,0.06,,2013-03-16 14:32:00,
2013-03-16 09:42:00,19.0,15.0,30.01,North,360,5.0,10.0,84,0.00,,,0.06,,2013-03-16 14:42:00,
2013-03-16 09:52:00,20.0,16.0,30.02,East,79,2.0,10.0,83,0.00,,,0.06,,2013-03-16 14:52:00,
2013-03-16 10:02:00,20.0,16.0,30.02,NNW,334,5.0,11.0,83,0.00,,,0.06,,2013-03-16 15:02:00,
2013-03-16 10:12:00,20.0,16.0,30.02,NNW,334,5.0,11.0,83,0.00,,,0.06,,2013-03-16 15:12:00,
2013-03-16 10:22:00,20.0,16.0,30.03,NNE,16,7.0,11.0,83,0.00,,,0.06,,2013-03-16 15:22:00,
2013-03-16 10:33:00,20.0,16.0,30.03,NNW,340,5.0,9.0,83,0.00,,,0.06,,2013-03-16 15:33:00,
2013-03-16 10:43:00,20.0,16.0,30.03,NNW,340,5.0,9.0,83,0.00,,,0.06,,2013-03-16 15:43:00,
2013-03-16 10:52:00,20.0,15.0,30.03,North,360,9.0,13.0,82,0.00,,,0.06,,2013-03-16 15:52:00,
2013-03-16 11:03:00,21.0,16.0,30.05,NNW,348,6.0,11.0,81,0.00,,,0.06,,2013-03-16 16:03:00,
2013-03-16 11:12:00,21.0,16.0,30.05,NNW,348,6.0,11.0,81,0.00,,,0.06,,2013-03-16 16:12:00,
2013-03-16 11:22:00,21.0,16.0,30.05,North,355,3.0,10.0,81,0.00,,,0.06,,2013-03-16 16:22:00,
2013-03-16 11:33:00,21.0,16.0,30.06,NNW,347,6.0,11.0,81,0.00,,,0.06,,2013-03-16 16:33:00,
2013-03-16 11:42:00,21.0,16.0,30.06,NNW,347,6.0,11.0,81,0.00,,,0.06,,2013-03-16 16:42:00,
2013-03-16 11:52:00,22.0,17.0,30.06,North,9,4.0,8.0,80,0.00,,,0.06,,2013-03-16 16:52:00,
2013-03-16 12:03:00,22.0,17.0,30.07,NNE,12,4.0,8.0,80,0.00,,,0.05,,2013-03-16 17:03:00,
2013-03-16 12:12:00,22.0,17.0,30.07,NNE,12,4.0,8.0,80,0.00,,,0.05,,2013-03-16 17:12:00,
2013-03-16 12:23:00,22.0,16.0,30.07,North,350,3.0,10.0,79,0.00,,,0.05,,2013-03-16 17:23:00,
2013-03-16 12:32:00,23.0,17.0,30.06,NNW,338,7.0,8.0,77,0.00,,,0.05,,2013-03-16 17:32:00,
2013-03-16 12:42:00,23.0,17.0,30.06,NNW,338,7.0,8.0,77,0.00,,,0.05,,2013-03-16 17:42:00,
2013-03-16 12:53:00,23.0,17.0,30.07,NNW,327,1.0,8.0,79,0.00,,,0.05,,2013-03-16 17:53:00,
2013-03-16 13:02:00,24.0,18.0,30.06,NNE,18,8.0,9.0,78,0.00,,,0.05,,2013-03-16 18:02:00,
2013-03-16 13:13:00,24.0,18.0,30.06,NNE,18,8.0,9.0,78,0.00,,,0.05,,2013-03-16 18:13:00,
2013-03-16 13:22:00,25.0,19.0,30.07,NNW,341,5.0,9.0,77,0.00,,,0.05,,2013-03-16 18:22:00,
2013-03-16 13:33:00,25.0,19.0,30.06,North,360,5.0,8.0,78,0.00,,,0.05,,2013-03-16 18:33:00,
2013-03-16 13:42:00,25.0,19.0,30.06,North,360,5.0,8.0,78,0.00,,,0.05,,2013-03-16 18:42:00,
2013-03-16 13:52:00,26.0,19.0,30.06,NNE,13,6.0,8.0,75,0.00,,,0.04,,2013-03-16 18:52:00,
2013-03-16 14:02:00,26.0,19.0,30.06,NW,307,2.0,8.0,74,0.00,,,0.04,,2013-03-16 19:02:00,
2013-03-16 14:12:00,26.0,19.0,30.06,NW,307,2.0,8.0,74,0.00,,,0.04,,2013-03-16 19:12:00,
2013-03-16 14:22:00,27.0,20.0,30.06,WNW,285,5.0,6.0,75,0.00,,,0.04,,2013-03-16 19:22:00,
2013-03-16 14:32:00,27.0,19.0,30.06,North,355,2.0,9.0,72,0.00,,,0.04,,2013-03-16 19:32:00,
2013-03-16 14:42:00,27.0,19.0,30.06,North,355,2.0,9.0,72,0.00,,,0.04,,2013-03-16 19:42:00,
2013-03-16 14:52:00,27.0,19.0,30.06,WNW,296,5.0,7.0,72,0.00,,,0.04,,2013-03-16 19:52:00,
2013-03-16 15:02:00,28.0,21.0,30.06,WNW,287,6.0,8.0,74,0.00,,,0.04,,2013-03-16 20:02:00,
2013-03-16 15:12:00,28.0,21.0,30.06,WNW,287,6.0,8.0,74,0.00,,,0.04,,2013-03-16 20:12:00,
2013-03-16 15:22:00,28.0,20.0,30.06,WNW,287,6.0,7.0,72,0.00,,,0.04,,2013-03-16 20:22:00,
2013-03-16 15:32:00,29.0,20.0,30.06,WNW,292,7.0,11.0,70,0.00,,,0.04,,2013-03-16 20:32:00,
2013-03-16 15:42:00,29.0,20.0,30.06,WNW,292,7.0,11.0,70,0.00,,,0.04,,2013-03-16 20:42:00,
2013-03-16 15:52:00,29.0,20.0,30.06,NW,311,8.0,9.0,68,0.00,,,0.04,,2013-03-16 20:52:00,
2013-03-16 16:02:00,29.0,20.0,30.05,West,273,5.0,11.0,69,0.00,,,0.04,,2013-03-16 21:02:00,
2013-03-16 16:12:00,29.0,20.0,30.05,West,273,5.0,11.0,69,0.00,,,0.04,,2013-03-16 21:12:00,
2013-03-16 16:22:00,29.0,19.0,30.05,WSW,237,5.0,11.0,67,0.00,,,0.04,,2013-03-16 21:22:00,
2013-03-16 16:32:00,30.0,20.0,30.06,West,277,10.0,12.0,67,0.00,,,0.04,,2013-03-16 21:32:00,
2013-03-16 16:43:00,30.0,20.0,30.06,West,277,10.0,12.0,67,0.00,,,0.04,,2013-03-16 21:43:00,
2013-03-16 16:52:00,29.0,19.0,30.06,West,276,7.0,10.0,65,0.00,,,0.04,,2013-03-16 21:52:00,
2013-03-16 17:03:00,29.0,19.0,30.05,West,278,6.0,13.0,67,0.00,,,0.04,,2013-03-16 22:03:00,
2013-03-16 17:12:00,29.0,19.0,30.05,West,278,6.0,13.0,67,0.00,,,0.04,,2013-03-16 22:12:00,
2013-03-16 17:22:00,29.0,19.0,30.05,NW,305,5.0,9.0,67,0.00,,,0.04,,2013-03-16 22:22:00,
2013-03-16 17:33:00,30.0,20.0,30.05,WNW,286,3.0,8.0,67,0.00,,,0.04,,2013-03-16 22:33:00,
2013-03-16 17:42:00,30.0,20.0,30.05,WNW,286,3.0,8.0,67,0.00,,,0.04,,2013-03-16 22:42:00,
2013-03-16 17:52:00,29.0,19.0,30.05,NW,313,5.0,10.0,65,0.00,,,0.04,,2013-03-16 22:52:00,
2013-03-16 18:02:00,29.0,19.0,30.05,WNW,294,3.0,8.0,65,0.00,,,0.04,,2013-03-16 23:02:00,
2013-03-16 18:12:00,29.0,19.0,30.05,WNW,294,3.0,8.0,65,0.00,,,0.04,,2013-03-16 23:12:00,
2013-03-16 18:22:00,29.0,19.0,30.05,WNW,286,8.0,14.0,67,0.00,,,0.04,,2013-03-16 23:22:00,
2013-03-16 18:32:00,29.0,19.0,30.06,WNW,297,3.0,10.0,67,0.00,,,0.04,,2013-03-16 23:32:00,
2013-03-16 18:42:00,29.0,19.0,30.06,WNW,297,3.0,10.0,67,0.00,,,0.04,,2013-03-16 23:42:00,
2013-03-16 18:52:00,29.0,19.0,30.06,West,261,5.0,11.0,66,0.00,,,0.04,,2013-03-16 23:52:00,
2013-03-16 19:01:00,28.0,18.0,30.06,WNW,294,3.0,10.0,67,0.00,,,0.04,,2013-03-17 00:01:00,
2013-03-16 19:12:00,28.0,18.0,30.06,WNW,294,3.0,10.0,67,0.00,,,0.04,,2013-03-17 00:12:00,
2013-03-16 19:22:00,28.0,19.0,30.06,WNW,289,4.0,8.0,69,0.00,,,0.04,,2013-03-17 00:22:00,
2013-03-16 19:32:00,28.0,19.0,30.07,West,279,3.0,7.0,69,0.00,,,0.04,,2013-03-17 00:32:00,
2013-03-16 19:42:00,28.0,19.0,30.07,West,279,3.0,7.0,69,0.00,,,0.04,,2013-03-17 00:42:00,
2013-03-16 19:52:00,28.0,20.0,30.08,West,273,2.0,9.0,70,0.00,,,0.04,,2013-03-17 00:52:00,
2013-03-16 20:02:00,28.0,20.0,30.09,SW,234,5.0,7.0,71,0.00,,,0.04,,2013-03-17 01:02:00,
2013-03-16 20:12:00,28.0,20.0,30.09,SW,234,5.0,7.0,71,0.00,,,0.04,,2013-03-17 01:12:00,
2013-03-16 20:22:00,28.0,19.0,30.09,NW,313,6.0,8.0,69,0.00,,,0.04,,2013-03-17 01:22:00,
2013-03-16 20:32:00,28.0,19.0,30.10,WNW,297,8.0,10.0,69,0.00,,,0.04,,2013-03-17 01:32:00,
2013-03-16 20:42:00,28.0,19.0,30.10,WNW,297,8.0,10.0,69,0.00,,,0.04,,2013-03-17 01:42:00,
2013-03-16 20:52:00,28.0,20.0,30.10,NW,321,8.0,8.0,70,0.00,,,0.04,,2013-03-17 01:52:00,
2013-03-16 21:02:00,27.0,19.0,30.12,WNW,286,4.0,11.0,70,0.00,,,0.04,,2013-03-17 02:02:00,
2013-03-16 21:12:00,27.0,19.0,30.12,WNW,286,4.0,11.0,70,0.00,,,0.04,,2013-03-17 02:12:00,
2013-03-16 21:22:00,27.0,19.0,30.13,West,279,7.0,12.0,70,0.00,,,0.04,,2013-03-17 02:22:00,
2013-03-16 21:33:00,27.0,19.0,30.14,WNW,302,5.0,13.0,70,0.00,,,0.04,,2013-03-17 02:33:00,
2013-03-16 21:42:00,27.0,19.0,30.14,WNW,302,5.0,13.0,70,0.00,,,0.04,,2013-03-17 02:42:00,
2013-03-16 21:52:00,27.0,19.0,30.14,WNW,297,6.0,12.0,71,0.00,,,0.04,,2013-03-17 02:52:00,
2013-03-16 22:02:00,26.0,18.0,30.14,West,279,4.0,10.0,70,0.00,,,0.04,,2013-03-17 03:02:00,
2013-03-16 22:12:00,26.0,18.0,30.14,West,279,4.0,10.0,70,0.00,,,0.04,,2013-03-17 03:12:00,
2013-03-16 22:22:00,25.0,17.0,30.14,West,273,1.0,9.0,71,0.00,,,0.04,,2013-03-17 03:22:00,
2013-03-16 22:33:00,25.0,17.0,30.14,WNW,286,2.0,8.0,71,0.00,,,0.04,,2013-03-17 03:33:00,
2013-03-16 22:43:00,25.0,17.0,30.14,WNW,286,2.0,8.0,71,0.00,,,0.04,,2013-03-17 03:43:00,
2013-03-16 22:53:00,24.0,16.0,30.14,WNW,300,4.0,7.0,72,0.00,,,0.03,,2013-03-17 03:53:00,
2013-03-16 23:03:00,24.0,16.0,30.14,WNW,300,3.0,8.0,72,0.00,,,0.03,,2013-03-17 04:03:00,
2013-03-16 23:12:00,24.0,16.0,30.14,WNW,300,3.0,8.0,72,0.00,,,0.03,,2013-03-17 04:12:00,
2013-03-16 23:23:00,24.0,16.0,30.15,WNW,295,4.0,10.0,72,0.00,,,0.03,,2013-03-17 04:23:00,
2013-03-16 23:32:00,24.0,16.0,30.15,NW,306,3.0,9.0,71,0.00,,,0.03,,2013-03-17 04:32:00,
2013-03-16 23:42:00,24.0,16.0,30.15,NW,306,3.0,9.0,71,0.00,,,0.03,,2013-03-17 04:42:00,
2013-03-16 23:53:00,23.0,15.0,30.16,WNW,296,2.0,7.0,71,0.00,,,0.03,,2013-03-17 04:53:00,